Time,TemperatureF,DewpointF,PressureIn,WindDirection,WindDirectionDegrees,WindSpeedMPH,WindSpeedGustMPH,Humidity,HourlyPrecipIn,Conditions,Clouds,dailyrainin,SoftwareType,DateUTC
2013-07-02 00:01:00,58.0,54.0,30.16,WNW,296,0.0,2.0,86,0.00,,,0.00,,2013-07-02 05:01:00,
2013-07-02 00:11:00,57.0,53.0,30.16,WNW,296,0.0,1.0,87,0.00,,,0.00,,2013-07-02 05:11:00,
2013-07-02 00:22:00,57.0,53.0,30.16,WNW,296,1.0,2.0,87,0.00,,,0.00,,2013-07-02 05:22:00,
2013-07-02 00:32:00,57.0,53.0,30.16,WNW,296,2.0,3.0,87,0.00,,,0.00,,2013-07-02 05:32:00,
2013-07-02 00:43:00,56.0,52.0,30.16,WNW,296,1.0,3.0,88,0.00,,,0.00,,2013-07-02 05:43:00,
2013-07-02 00:53:00,56.0,52.0,30.16,WNW,296,0.0,2.0,88,0.00,,,0.00,,2013-07-02 05:53:00,
2013-07-02 01:01:00,56.0,52.0,30.16,WNW,296,2.0,3.0,87,0.00,,,0.00,,2013-07-02 06:01:00,
2013-07-02 01:11:00,56.0,53.0,30.16,WNW,296,1.0,3.0,89,0.00,,,0.00,,2013-07-02 06:11:00,
2013-07-02 01:23:00,56.0,53.0,30.16,WNW,296,1.0,1.0,89,0.00,,,0.00,,2013-07-02 06:23:00,
2013-07-02 01:33:00,56.0,52.0,30.16,WNW,296,2.0,3.0,88,0.00,,,0.00,,2013-07-02 06:33:00,
2013-07-02 01:43:00,57.0,53.0,30.16,WNW,294,1.0,3.0,88,0.00,,,0.00,,2013-07-02 06:43:00,
2013-07-02 01:53:00,59.0,54.0,30.16,WNW,294,0.0,2.0,84,0.00,,,0.00,,2013-07-02 06:53:00,
2013-07-02 02:01:00,59.0,54.0,30.16,WNW,295,0.0,0.0,82,0.00,,,0.00,,2013-07-02 07:01:00,
2013-07-02 02:11:00,59.0,53.0,30.16,WNW,294,2.0,2.0,80,0.00,,,0.00,,2013-07-02 07:11:00,
2013-07-02 02:22:00,58.0,53.0,30.16,WNW,294,0.0,1.0,84,0.00,,,0.00,,2013-07-02 07:22:00,
2013-07-02 02:33:00,56.0,52.0,30.16,WNW,294,0.0,0.0,87,0.00,,,0.00,,2013-07-02 07:33:00,
2013-07-02 02:44:00,57.0,53.0,30.16,WNW,294,0.0,0.0,86,0.00,,,0.00,,2013-07-02 07:44:00,
2013-07-02 02:52:00,57.0,53.0,30.16,WNW,295,0.0,0.0,85,0.00,,,0.00,,2013-07-02 07:52:00,
2013-07-02 03:02:00,55.0,51.0,30.16,WNW,294,0.0,0.0,87,0.00,,,0.00,,2013-07-02 08:02:00,
2013-07-02 03:12:00,54.0,51.0,30.16,WNW,294,0.0,0.0,90,0.00,,,0.00,,2013-07-02 08:12:00,
2013-07-02 03:22:00,54.0,51.0,30.15,WNW,294,1.0,2.0,91,0.00,,,0.00,,2013-07-02 08:22:00,
2013-07-02 03:33:00,55.0,52.0,30.16,WNW,294,2.0,3.0,91,0.00,,,0.00,,2013-07-02 08:33:00,
2013-07-02 03:44:00,55.0,52.0,30.16,WNW,294,1.0,2.0,90,0.00,,,0.00,,2013-07-02 08:44:00,
2013-07-02 03:53:00,57.0,53.0,30.16,WNW,294,1.0,2.0,87,0.00,,,0.00,,2013-07-02 08:53:00,
2013-07-02 04:01:00,57.0,53.0,30.16,WNW,294,0.0,3.0,86,0.00,,,0.00,,2013-07-02 09:01:00,
2013-07-02 04:11:00,57.0,53.0,30.16,WNW,294,1.0,2.0,87,0.00,,,0.00,,2013-07-02 09:11:00,
2013-07-02 04:22:00,57.0,53.0,30.16,WNW,296,0.0,2.0,86,0.00,,,0.00,,2013-07-02 09:22:00,
2013-07-02 04:33:00,57.0,53.0,30.16,WNW,296,0.0,2.0,87,0.00,,,0.00,,2013-07-02 09:33:00,
2013-07-02 04:43:00,57.0,53.0,30.16,WNW,296,0.0,0.0,86,0.00,,,0.00,,2013-07-02 09:43:00,
2013-07-02 04:52:00,57.0,53.0,30.16,WNW,296,0.0,0.0,87,0.00,,,0.00,,2013-07-02 09:52:00,
2013-07-02 05:01:00,57.0,53.0,30.16,WNW,296,0.0,2.0,88,0.00,,,0.00,,2013-07-02 10:01:00,
2013-07-02 05:22:00,56.0,53.0,30.16,WNW,296,0.0,0.0,89,0.00,,,0.00,,2013-07-02 10:22:00,
2013-07-02 05:33:00,55.0,52.0,30.17,WNW,296,0.0,0.0,88,0.00,,,0.00,,2013-07-02 10:33:00,
2013-07-02 05:43:00,55.0,52.0,30.17,WNW,296,0.0,0.0,91,0.00,,,0.00,,2013-07-02 10:43:00,
2013-07-02 05:52:00,54.0,51.0,30.17,WNW,295,2.0,3.0,89,0.00,,,0.00,,2013-07-02 10:52:00,
2013-07-02 06:01:00,53.0,51.0,30.17,WNW,296,0.0,3.0,92,0.00,,,0.00,,2013-07-02 11:01:00,
2013-07-02 06:11:00,55.0,53.0,30.18,WNW,296,0.0,2.0,92,0.00,,,0.00,,2013-07-02 11:11:00,
2013-07-02 06:22:00,54.0,51.0,30.18,WNW,296,0.0,0.0,90,0.00,,,0.00,,2013-07-02 11:22:00,
2013-07-02 06:33:00,53.0,51.0,30.18,WNW,296,0.0,0.0,92,0.00,,,0.00,,2013-07-02 11:33:00,
2013-07-02 06:42:00,53.0,51.0,30.18,WNW,296,0.0,0.0,93,0.00,,,0.00,,2013-07-02 11:42:00,
2013-07-02 06:52:00,53.0,51.0,30.19,WNW,296,0.0,0.0,93,0.00,,,0.00,,2013-07-02 11:52:00,
2013-07-02 07:01:00,53.0,51.0,30.19,WNW,296,0.0,0.0,93,0.00,,,0.00,,2013-07-02 12:01:00,
2013-07-02 07:11:00,53.0,51.0,30.19,WNW,296,0.0,0.0,94,0.00,,,0.00,,2013-07-02 12:11:00,
2013-07-02 07:23:00,55.0,54.0,30.19,WNW,296,0.0,0.0,95,0.00,,,0.00,,2013-07-02 12:23:00,
2013-07-02 07:33:00,56.0,54.0,30.19,WNW,296,0.0,0.0,94,0.00,,,0.00,,2013-07-02 12:33:00,
2013-07-02 07:43:00,57.0,55.0,30.19,WNW,296,0.0,0.0,92,0.00,,,0.00,,2013-07-02 12:43:00,
2013-07-02 07:52:00,59.0,56.0,30.19,WNW,296,0.0,0.0,91,0.00,,,0.00,,2013-07-02 12:52:00,
2013-07-02 08:01:00,59.0,56.0,30.19,WNW,296,0.0,0.0,89,0.00,,,0.00,,2013-07-02 13:01:00,
2013-07-02 08:11:00,61.0,58.0,30.19,WNW,296,0.0,0.0,89,0.00,,,0.00,,2013-07-02 13:11:00,
2013-07-02 08:22:00,62.0,58.0,30.19,WNW,296,0.0,0.0,86,0.00,,,0.00,,2013-07-02 13:22:00,
2013-07-02 08:34:00,63.0,58.0,30.19,WNW,296,0.0,0.0,84,0.00,,,0.00,,2013-07-02 13:34:00,
2013-07-02 08:43:00,65.0,60.0,30.19,WNW,296,0.0,0.0,83,0.00,,,0.00,,2013-07-02 13:43:00,
2013-07-02 09:11:00,70.0,60.0,30.19,ENE,67,1.0,3.0,70,0.00,,,0.00,,2013-07-02 14:11:00,
2013-07-02 09:33:00,71.0,57.0,30.19,East,84,1.0,4.0,62,0.00,,,0.00,,2013-07-02 14:33:00,
2013-07-02 09:43:00,73.0,58.0,30.19,ESE,107,2.0,4.0,60,0.00,,,0.00,,2013-07-02 14:43:00,
2013-07-02 09:53:00,73.0,57.0,30.19,East,88,2.0,6.0,57,0.00,,,0.00,,2013-07-02 14:53:00,
2013-07-02 10:02:00,74.0,56.0,30.19,ESE,108,1.0,8.0,54,0.00,,,0.00,,2013-07-02 15:02:00,
2013-07-02 10:11:00,75.0,56.0,30.19,East,101,3.0,8.0,51,0.00,,,0.00,,2013-07-02 15:11:00,
2013-07-02 10:22:00,75.0,54.0,30.19,ESE,115,4.0,8.0,48,0.00,,,0.00,,2013-07-02 15:22:00,
2013-07-02 10:33:00,76.0,54.0,30.19,ESE,117,2.0,7.0,47,0.00,,,0.00,,2013-07-02 15:33:00,
2013-07-02 10:44:00,76.0,52.0,30.19,East,86,6.0,8.0,44,0.00,,,0.00,,2013-07-02 15:44:00,
2013-07-02 10:53:00,77.0,53.0,30.19,East,96,6.0,9.0,44,0.00,,,0.00,,2013-07-02 15:53:00,
2013-07-02 11:01:00,78.0,52.0,30.19,ENE,78,4.0,9.0,40,0.00,,,0.00,,2013-07-02 16:01:00,
2013-07-02 11:12:00,78.0,54.0,30.19,East,94,4.0,7.0,43,0.00,,,0.00,,2013-07-02 16:12:00,
2013-07-02 11:22:00,78.0,51.0,30.19,East,80,6.0,10.0,39,0.00,,,0.00,,2013-07-02 16:22:00,
2013-07-02 11:33:00,79.0,52.0,30.19,East,92,6.0,10.0,39,0.00,,,0.00,,2013-07-02 16:33:00,
2013-07-02 11:43:00,79.0,50.0,30.19,ESE,108,4.0,9.0,36,0.00,,,0.00,,2013-07-02 16:43:00,
2013-07-02 11:52:00,79.0,53.0,30.19,East,85,2.0,9.0,40,0.00,,,0.00,,2013-07-02 16:52:00,
2013-07-02 12:02:00,79.0,51.0,30.19,SSW,194,3.0,8.0,38,0.00,,,0.00,,2013-07-02 17:02:00,
2013-07-02 12:11:00,80.0,51.0,30.18,South,190,2.0,7.0,37,0.00,,,0.00,,2013-07-02 17:11:00,
2013-07-02 12:33:00,80.0,53.0,30.18,ENE,71,6.0,16.0,39,0.00,,,0.00,,2013-07-02 17:33:00,
2013-07-02 12:43:00,80.0,53.0,30.18,SE,130,1.0,9.0,39,0.00,,,0.00,,2013-07-02 17:43:00,
2013-07-02 12:53:00,80.0,53.0,30.18,East,92,5.0,11.0,39,0.00,,,0.00,,2013-07-02 17:53:00,
2013-07-02 13:02:00,81.0,54.0,30.18,SSE,161,2.0,6.0,39,0.00,,,0.00,,2013-07-02 18:02:00,
2013-07-02 13:12:00,81.0,54.0,30.17,ENE,63,5.0,8.0,39,0.00,,,0.00,,2013-07-02 18:12:00,
2013-07-02 13:23:00,81.0,54.0,30.17,East,81,3.0,9.0,40,0.00,,,0.00,,2013-07-02 18:23:00,
2013-07-02 13:34:00,81.0,55.0,30.17,ESE,110,5.0,11.0,41,0.00,,,0.00,,2013-07-02 18:34:00,
2013-07-02 13:43:00,81.0,53.0,30.17,ESE,105,2.0,11.0,38,0.00,,,0.00,,2013-07-02 18:43:00,
2013-07-02 13:53:00,81.0,54.0,30.16,ENE,72,2.0,4.0,39,0.00,,,0.00,,2013-07-02 18:53:00,
2013-07-02 14:01:00,81.0,55.0,30.16,NE,38,4.0,9.0,41,0.00,,,0.00,,2013-07-02 19:01:00,
2013-07-02 14:12:00,80.0,53.0,30.16,ENE,65,3.0,8.0,39,0.00,,,0.00,,2013-07-02 19:12:00,
2013-07-02 14:22:00,80.0,56.0,30.16,ENE,62,3.0,9.0,44,0.00,,,0.00,,2013-07-02 19:22:00,
2013-07-02 14:34:00,81.0,54.0,30.16,ENE,78,5.0,9.0,39,0.00,,,0.00,,2013-07-02 19:34:00,
2013-07-02 14:43:00,81.0,53.0,30.15,NNE,28,1.0,4.0,38,0.00,,,0.00,,2013-07-02 19:43:00,
2013-07-02 14:53:00,83.0,55.0,30.15,NW,323,3.0,11.0,38,0.00,,,0.00,,2013-07-02 19:53:00,
2013-07-02 15:02:00,82.0,55.0,30.15,East,83,3.0,7.0,40,0.00,,,0.00,,2013-07-02 20:02:00,
2013-07-02 15:11:00,81.0,53.0,30.14,ESE,116,4.0,8.0,38,0.00,,,0.00,,2013-07-02 20:11:00,
2013-07-02 15:22:00,81.0,54.0,30.14,ENE,63,5.0,11.0,40,0.00,,,0.00,,2013-07-02 20:22:00,
2013-07-02 15:33:00,79.0,53.0,30.14,North,5,1.0,7.0,40,0.00,,,0.00,,2013-07-02 20:33:00,
2013-07-02 15:43:00,82.0,54.0,30.14,East,98,4.0,9.0,38,0.00,,,0.00,,2013-07-02 20:43:00,
2013-07-02 15:52:00,82.0,56.0,30.14,ENE,64,3.0,11.0,41,0.00,,,0.00,,2013-07-02 20:52:00,
2013-07-02 16:02:00,80.0,53.0,30.14,ENE,63,11.0,19.0,39,0.00,,,0.00,,2013-07-02 21:02:00,
2013-07-02 16:11:00,79.0,53.0,30.14,ENE,65,13.0,17.0,41,0.00,,,0.00,,2013-07-02 21:11:00,
2013-07-02 16:22:00,80.0,54.0,30.13,East,94,9.0,15.0,41,0.00,,,0.00,,2013-07-02 21:22:00,
2013-07-02 16:33:00,80.0,54.0,30.13,ESE,121,8.0,15.0,41,0.00,,,0.00,,2013-07-02 21:33:00,
2013-07-02 16:43:00,80.0,53.0,30.13,East,83,6.0,11.0,40,0.00,,,0.00,,2013-07-02 21:43:00,
2013-07-02 16:52:00,81.0,54.0,30.13,ENE,77,6.0,8.0,40,0.00,,,0.00,,2013-07-02 21:52:00,
2013-07-02 17:01:00,82.0,53.0,30.12,East,87,3.0,7.0,37,0.00,,,0.00,,2013-07-02 22:01:00,
2013-07-02 17:11:00,82.0,55.0,30.12,East,82,5.0,8.0,39,0.00,,,0.00,,2013-07-02 22:11:00,
2013-07-02 17:22:00,81.0,54.0,30.12,East,82,2.0,9.0,40,0.00,,,0.00,,2013-07-02 22:22:00,
2013-07-02 17:34:00,82.0,55.0,30.12,East,88,3.0,8.0,40,0.00,,,0.00,,2013-07-02 22:34:00,
2013-07-02 17:43:00,81.0,54.0,30.11,ESE,105,1.0,5.0,40,0.00,,,0.00,,2013-07-02 22:43:00,
2013-07-02 17:53:00,80.0,53.0,30.11,ENE,73,1.0,7.0,40,0.00,,,0.00,,2013-07-02 22:53:00,
2013-07-02 18:01:00,80.0,53.0,30.11,NNE,24,2.0,5.0,39,0.00,,,0.00,,2013-07-02 23:01:00,
2013-07-02 18:11:00,80.0,52.0,30.11,ESE,104,2.0,4.0,38,0.00,,,0.00,,2013-07-02 23:11:00,
2013-07-02 18:22:00,80.0,53.0,30.11,East,88,3.0,7.0,40,0.00,,,0.00,,2013-07-02 23:22:00,
2013-07-02 18:33:00,79.0,52.0,30.11,ENE,65,4.0,7.0,39,0.00,,,0.00,,2013-07-02 23:33:00,
2013-07-02 18:44:00,78.0,53.0,30.11,ENE,75,4.0,6.0,42,0.00,,,0.00,,2013-07-02 23:44:00,
2013-07-02 18:52:00,78.0,53.0,30.11,East,79,3.0,7.0,42,0.00,,,0.00,,2013-07-02 23:52:00,
2013-07-02 19:01:00,78.0,54.0,30.11,East,89,1.0,5.0,44,0.00,,,0.00,,2013-07-03 00:01:00,
2013-07-02 19:11:00,78.0,54.0,30.10,ESE,120,1.0,5.0,44,0.00,,,0.00,,2013-07-03 00:11:00,
2013-07-02 19:22:00,79.0,55.0,30.11,ENE,74,2.0,5.0,43,0.00,,,0.00,,2013-07-03 00:22:00,
2013-07-02 19:33:00,79.0,53.0,30.10,ESE,121,3.0,5.0,41,0.00,,,0.00,,2013-07-03 00:33:00,
2013-07-02 19:44:00,80.0,53.0,30.10,ESE,123,4.0,7.0,39,0.00,,,0.00,,2013-07-03 00:44:00,
2013-07-02 19:52:00,79.0,53.0,30.11,ESE,119,2.0,4.0,40,0.00,,,0.00,,2013-07-03 00:52:00,
2013-07-02 20:01:00,79.0,53.0,30.10,SE,128,2.0,4.0,41,0.00,,,0.00,,2013-07-03 01:01:00,
2013-07-02 20:11:00,79.0,56.0,30.10,ESE,119,0.0,2.0,45,0.00,,,0.00,,2013-07-03 01:11:00,
2013-07-02 20:22:00,78.0,55.0,30.10,ESE,120,0.0,2.0,45,0.00,,,0.00,,2013-07-03 01:22:00,
2013-07-02 20:33:00,77.0,55.0,30.10,ESE,120,0.0,2.0,47,0.00,,,0.00,,2013-07-03 01:33:00,
2013-07-02 20:42:00,77.0,55.0,30.09,ESE,120,0.0,1.0,47,0.00,,,0.00,,2013-07-03 01:42:00,
2013-07-02 21:02:00,76.0,54.0,30.09,ESE,120,0.0,1.0,47,0.00,,,0.00,,2013-07-03 02:02:00,
2013-07-02 21:12:00,76.0,54.0,30.09,ESE,120,0.0,1.0,47,0.00,,,0.00,,2013-07-03 02:12:00,
2013-07-02 21:25:00,73.0,55.0,30.09,ESE,120,1.0,2.0,54,0.00,,,0.00,,2013-07-03 02:25:00,
2013-07-02 21:37:00,73.0,52.0,30.09,South,178,2.0,4.0,47,0.00,,,0.00,,2013-07-03 02:37:00,
2013-07-02 21:43:00,72.0,53.0,30.10,South,178,0.0,1.0,52,0.00,,,0.00,,2013-07-03 02:43:00,
2013-07-02 21:54:00,71.0,56.0,30.10,South,178,0.0,0.0,60,0.00,,,0.00,,2013-07-03 02:54:00,
2013-07-02 22:02:00,69.0,55.0,30.10,South,178,2.0,3.0,61,0.00,,,0.00,,2013-07-03 03:02:00,
2013-07-02 22:12:00,67.0,55.0,30.11,South,178,0.0,1.0,66,0.00,,,0.00,,2013-07-03 03:12:00,
2013-07-02 22:25:00,66.0,56.0,30.11,South,178,0.0,1.0,69,0.00,,,0.00,,2013-07-03 03:25:00,
2013-07-02 22:35:00,66.0,56.0,30.11,South,178,1.0,2.0,71,0.00,,,0.00,,2013-07-03 03:35:00,
2013-07-02 23:01:00,62.0,55.0,30.11,South,178,0.0,2.0,78,0.00,,,0.00,,2013-07-03 04:01:00,
2013-07-02 23:11:00,61.0,55.0,30.11,South,190,1.0,3.0,81,0.00,,,0.00,,2013-07-03 04:11:00,
2013-07-02 23:33:00,60.0,55.0,30.11,South,190,1.0,2.0,84,0.00,,,0.00,,2013-07-03 04:33:00,
2013-07-02 23:43:00,59.0,54.0,30.11,South,190,1.0,2.0,84,0.00,,,0.00,,2013-07-03 04:43:00,
2013-07-02 23:52:00,59.0,55.0,30.11,South,190,0.0,1.0,86,0.00,,,0.00,,2013-07-03 04:52:00,